Location: Worth Mountain WMA
(34.9569°N, 81.4819°W)
Time: 14:59:01
(UTC-04:00)

Daily predictions for brighter satellites

Satellite Brightness Start Highest point End
(mag) Time Altitude Azimuth Time Altitude Azimuth Time Altitude Azimuth
Cosmos 332 Rocket 3.9 21:06:38 10° NNW 21:11:27 67° ENE 21:16:17 10° SSE
H-2A R/B 3.2 21:11:53 10° SE 21:15:49 30° ENE 21:19:46 10° N
USA 229 DEB 3.8 21:10:42 10° SSW 21:17:27 61° ESE 21:24:18 10° NE
USA 229 3.8 21:10:48 10° SSW 21:17:33 60° ESE 21:24:24 10° NE
Cosmos 540 Rocket 3.6 21:15:25 10° NNW 21:20:36 78° WSW 21:25:44 10° S
Cosmos 1441 Rocket 3.6 21:17:07 10° SSE 21:20:40 40° E 21:24:13 10° NNE
Cosmos 1328 Rocket 4.1 21:17:43 10° N 21:21:58 43° E 21:26:11 10° SSE
Cosmos 1655 Rocket 4.2 21:17:33 10° S 21:23:46 81° W 21:30:01 10° N
Cosmos 2322 Rocket 2.3 21:20:49 10° NNW 21:26:23 63° ENE 21:31:55 10° SSE
S3M 4.1 21:20:27 10° N 21:26:28 58° E 21:32:29 10° SSE
Cosmos 1743 Rocket 3.6 21:28:34 10° S 21:33:03 86° E 21:37:32 10° N
Cosmos 2228 Rocket 3.1 21:28:43 10° N 21:33:13 79° E 21:37:43 10° S
Cosmos 1980 Rocket 3.5 21:30:38 10° NW 21:35:51 39° WSW 21:41:05 10° S
SL-16 R/B 2.2 21:30:45 10° NNW 21:36:26 72° ENE 21:41:53 11° SSE
Cosmos 2360 Rocket 3.4 21:31:43 10° N 21:36:27 27° ENE 21:40:35 12° ESE
In-Cosmos 22 4.3 21:31:08 10° S 21:36:53 85° E 21:42:40 10° N
Cosmos 968 Rocket 3.8 21:32:25 10° SSW 21:37:33 70° WNW 21:42:46 10° NNE
Cosmos 2221 4.4 21:35:28 10° NNW 21:39:11 29° W 21:42:54 10° SSW
Cosmos 1500 Rocket 3.5 21:35:08 10° S 21:39:27 67° E 21:43:49 10° NNE
ATLAS CENTAUR R/B 2.0 21:37:49 10° NW 21:42:10 55° WSW 21:46:06 10° SSE
Cosmos 1908 4.1 21:40:17 10° NNE 21:43:50 33° E 21:46:19 17° SE
Cosmos 371 Rocket 3.4 21:42:41 10° NNW 21:47:30 79° WSW 21:52:11 11° SSE
CZ-4 DEB 4.4 21:45:36 10° SSW 21:48:30 32° W 21:51:27 10° NNW
deb Chang Zheng 4 3.6 21:45:08 10° NNE 21:49:29 84° WNW 21:53:49 10° SSW
ALOS 3.9 21:45:43 10° SSW 21:49:53 33° W 21:54:06 10° NNW
USA 186 4.0 21:49:29 10° SW 21:50:51 14° W 21:52:16 10° WNW
Cosmos 1939 Rocket 2.8 21:47:29 13° SSE 21:50:57 71° ENE 21:54:52 10° N
DELTA 2 R/B(2) 4.2 21:53:22 10° W 21:54:53 39° NNW 21:56:57 10° ENE
Delta 2 Rocket 2.7 21:51:37 10° WSW 21:55:12 73° SSE 21:57:59 14° E
Cosmos 1674 2.7 21:53:25 10° S 21:57:06 64° E 22:00:56 10° NNE
Envisat 3.0 21:53:31 14° SSE 21:57:50 70° ENE 22:02:53 10° N
SPOT 5 3.0 21:55:18 18° SE 21:58:25 51° ENE 22:02:59 10° N
GPS 2-04 Rocket1 3.7 21:56:37 10° W 22:00:40 38° SSW 22:02:52 22° SSE
Cosmos 1833 4.2 21:58:14 10° SSW 22:03:57 88° WNW 22:09:40 10° NNE
ERS-1 Rocket 3.5 21:59:44 10° S 22:04:40 56° W 22:09:37 10° NNW
Meteor 2-2 Rocket 4.4 22:00:56 10° N 22:06:58 84° E 22:12:06 15° S
Tiangong 1 1.6 22:04:08 10° SSW 22:06:58 34° SE 22:06:59 34° SE
USA 245 4.1 22:10:34 19° ENE 22:10:34 19° ENE 22:12:13 10° NNE
Cosmos 1437 2.8 22:08:49 27° SSE 22:10:23 60° E 22:13:37 10° NNE
Cosmos 1300 4.2 22:07:33 10° NNE 22:10:26 20° ENE 22:11:00 19° E
Cosmos 1437 Rocket 2.7 22:06:44 10° N 22:10:33 83° W 22:13:01 21° S
Cosmos 1515 Rocket 3.9 22:06:16 10° NNW 22:10:40 64° W 22:14:28 13° S
DELTA 2 R/B (1) 3.9 22:06:24 10° WNW 22:11:55 63° NNE 22:16:24 16° E
PSLV R/B 3.0 22:16:12 39° SSE 22:17:12 81° ENE 22:20:17 10° N
Cosmos 2266 Rocket 4.1 22:13:50 10° S 22:20:10 78° W 22:26:26 10° N
Sich 1 4.0 22:20:00 27° ESE 22:20:43 29° E 22:24:31 10° NNE
Cosmos 1633 Rocket 4.1 22:21:04 26° ESE 22:21:37 27° E 22:25:19 10° NNE
Cosmos 2151 2.9 22:18:32 17° S 22:21:42 90° NW 22:25:55 10° N
Cosmos 2315 Rocket 4.1 22:16:04 10° N 22:22:09 56° E 22:25:34 26° SSE
COSMOS 2428 3.8 22:17:18 10° N 22:22:17 30° ENE 22:24:46 22° ESE
YAOGAN 6 2.7 22:23:27 40° SE 22:24:30 58° ENE 22:28:05 10° N
NOSS 3-1 (C) 3.3 22:19:19 10° SSW 22:24:57 59° ESE 22:31:06 10° NE
Cosmos 405 3.1 22:22:36 10° NNW 22:26:14 72° W 22:27:44 32° S
Cosmos 304 Rocket 3.7 22:25:25 10° NNW 22:30:15 73° ENE 22:32:12 35° SSE
Cosmos 1328 3.7 22:28:08 25° S 22:30:22 84° W 22:34:20 10° N
H-2A R/B 3.4 22:29:35 21° E 22:31:18 25° ENE 22:35:39 10° NNE
Cosmos 1805 Rocket 3.5 22:33:35 33° S 22:35:29 73° E 22:39:56 10° N
Cosmos 1151 Rocket 3.5 22:32:03 10° NNW 22:36:17 57° W 22:38:40 24° SSW
MetOp-A 4.2 22:33:53 26° S 22:36:59 79° WSW 22:42:21 10° NNW
Cosmos 2219 Rocket 3.8 22:34:37 10° N 22:38:44 21° ENE 22:40:42 17° E
ARGOS 3.3 22:37:03 34° SE 22:39:16 61° ENE 22:44:36 10° N
Cosmos 1244 Rocket 4.4 22:37:11 24° S 22:41:13 74° E 22:47:30 10° N
SPOT 1/Viking Rocket 3.4 22:41:07 36° SSE 22:43:15 81° ENE 22:48:25 10° N
OE (NEXTSAT) 4.2 22:40:03 10° WNW 22:43:38 84° SSW 22:43:51 76° SSE
Cosmos 1680 Rocket 3.5 22:42:17 10° NNW 22:47:32 80° WSW 22:49:36 38° S
Cosmos 2058 3.0 22:46:02 36° SSW 22:47:38 74° W 22:51:44 10° N
Cosmos 923 Rocket 4.5 22:46:09 10° NNW 22:51:12 53° WSW 22:53:33 30° SSW
H-2A R/B 4.3 22:48:21 10° SW 22:51:47 21° W 22:55:15 10° NW
Cosmos 2219 3.6 22:48:32 10° SSW 22:54:13 63° WNW 22:59:57 10° NNE
CZ-4B R/B 4.0 22:49:19 10° N 22:54:29 60° WNW 22:58:43 15° SSW
Terra 2.6 22:55:46 34° E 22:56:20 35° ENE 23:00:39 10° N
Cosmos 1707 Rocket 3.4 22:53:00 10° N 22:57:22 85° E 22:58:03 63° SSE
SL-14 R/B 3.2 22:56:58 69° SSW 22:57:24 87° W 23:01:24 10° N
Cosmos 1666 Rocket 3.5 22:56:36 51° SSW 22:57:41 86° W 23:02:07 10° N
Cosmos 1703 3.9 22:58:43 41° ENE 22:58:43 41° ENE 23:01:49 10° NNE
Cosmos 1898 Rocket 3.3 22:56:18 41° S 22:58:08 76° ESE 23:03:20 10° NNE
Cosmos 1745 Rocket 4.2 22:57:28 41° SE 22:59:12 53° E 23:05:11 10° NNE
Cosmos 2150 Rocket 4.0 22:57:11 35° S 22:59:32 81° ESE 23:05:02 10° NNE
SL-08 R/B 4.5 22:58:31 41° SSE 23:00:40 64° E 23:06:51 10° NNE
Cosmos 1726 2.2 22:59:13 10° N 23:02:46 71° NE 23:02:46 71° NE
Meteor 1-27 4.1 22:57:42 10° N 23:03:25 90° ENE 23:05:11 46° S
Cosmos 1271 Rocket 3.5 23:00:10 10° N 23:03:14 39° NE 23:03:14 39° NE
Meteor 2-11 Rocket 4.4 22:57:39 10° N 23:03:50 87° E 23:06:04 42° S
Cosmos 858 Rocket 4.3 23:04:03 45° S 23:05:40 81° ESE 23:10:54 10° NNE
Cosmos 2322 4.2 23:00:35 10° NNW 23:06:08 52° WSW 23:08:13 35° SSW
Cosmos 2082 4.3 23:07:20 37° E 23:07:20 37° E 23:12:13 10° NE
Cosmos 2237 Rocket 3.7 23:02:48 10° N 23:07:19 24° ENE 23:08:42 22° E
Cosmos 1470 Rocket 4.1 23:11:48 43° ENE 23:11:48 43° ENE 23:15:17 10° NNE
Cosmos 220 Rocket 4.1 23:12:13 60° ENE 23:12:13 60° ENE 23:16:08 10° NNE
OAO 2 Rocket 3.4 23:06:40 10° WSW 23:11:38 59° S 23:11:38 59° S
Cosmos 1933 Rocket 4.1 23:13:06 45° ENE 23:13:06 45° ENE 23:16:50 10° NNE
Iridium 2 4.2 23:14:54 52° NNE 23:14:54 52° NNE 23:17:58 10° N
IGS 5A 4.0 23:14:41 46° ENE 23:14:41 46° ENE 23:18:19 10° N
DMSP B5D2-2 4.0 23:09:27 10° NNE 23:14:39 65° ESE 23:15:08 61° SE
NOAA 11 4.5 23:16:38 42° SSW 23:18:16 60° W 23:23:39 10° NNW
Cosmos 2360 Rocket 3.2 23:15:19 10° NW 23:20:28 37° WSW 23:22:22 29° SW
NOSS 3-1 (A) 3.8 23:22:04 10° SW 23:27:48 61° NW 23:34:08 10° NNE
Cosmos 1386 Rocket 4.3 23:27:31 60° SE 23:28:18 66° E 23:34:16 10° NNE
NOSS 0 Rocket 4.2 23:26:20 10° NNW 23:32:20 53° ENE 23:33:19 48° E
USA 32 4.1 23:28:02 10° N 23:33:16 69° W 23:34:02 60° SW
Meteor 2-10 4.1 23:27:49 10° N 23:33:34 84° E 23:34:15 70° SSE
Meteor 1-4 Rocket 3.6 23:31:21 10° NNW 23:34:10 45° NW 23:34:10 45° NW
Cosmos 1626 3.6 23:40:11 34° NNE 23:40:11 34° NNE 23:42:24 10° N
Cosmos 2242 Rocket 4.0 23:34:47 10° NNW 23:39:05 55° W 23:39:05 55° W
Cosmos 2227 Rocket 2.0 23:42:28 79° SSE 23:42:47 84° ESE 23:48:29 10° NNE
ATLAS 2AS CENTAUR R/B 2.8 23:48:09 54° S 23:50:01 74° ESE 23:57:58 10° NE
CARTOSAT-1 4.5 23:54:18 43° WNW 23:54:18 43° WNW 23:57:52 10° NNW
